When you browse on this site, cookies collect data to enhance your experience and personalize the content and advertising you see.
Visit our Privacy Policy to learn more. By continuing to use the site, you agree to this use of cookies and data.
  • en France
  • Liste des pays
  • À 7 jours
  • Température de l'eau
  • Carte météo
  • Widgets météo
  • user-avatar
    Se connecter

    Météo par heure à Aleksandrie

    Ce jour, 22 Novembre, Vendredi

    Heure Température Précipitation Vent Pression Humidité
    00:00 +20°C° 0 mm 2 m/s 761 mmHg 55%
    01:00 +20°C° 0 mm 1 m/s 761 mmHg 53%
    02:00 +20°C° 0 mm 1 m/s 761 mmHg 51%
    03:00 +20°C° 0 mm 1 m/s 761 mmHg 52%
    04:00 +19°C° 0 mm 1 m/s 761 mmHg 53%
    05:00 +19°C° 0 mm 1 m/s 761 mmHg 53%
    06:00 +19°C° 0 mm 1 m/s 761 mmHg 52%
    07:00 +20°C° 0 mm 1 m/s 761 mmHg 50%
    08:00 +20°C° 0 mm 1 m/s 762 mmHg 47%
    09:00 +22°C° 0 mm 1 m/s 762 mmHg 45%
    10:00 +23°C° 0 mm 1 m/s 762 mmHg 43%
    11:00 +24°C° 0 mm 1 m/s 762 mmHg 42%
    12:00 +25°C° 0 mm 2 m/s 762 mmHg 43%
    13:00 +25°C° 0 mm 3 m/s 761 mmHg 44%
    14:00 +25°C° 0 mm 3 m/s 761 mmHg 47%
    15:00 +24°C° 0 mm 3 m/s 761 mmHg 52%
    16:00 +22°C° 0 mm 3 m/s 761 mmHg 56%
    17:00 +22°C° 0 mm 3 m/s 761 mmHg 61%
    18:00 +21°C° 0 mm 2 m/s 762 mmHg 61%
    19:00 +21°C° 0 mm 2 m/s 762 mmHg 61%
    20:00 +21°C° 0 mm 2 m/s 762 mmHg 61%
    21:00 +20°C° 0 mm 2 m/s 763 mmHg 62%
    22:00 +21°C° 0 mm 1 m/s 763 mmHg 63%
    23:00 +20°C° 0 mm 1 m/s 763 mmHg 64%

    Demain, 23 Novembre, Samedi

    Heure Température Précipitation Vent Pression Humidité
    00:00 +20°C° 0 mm 1 m/s 763 mmHg 66%
    01:00 +19°C° 0 mm 1 m/s 763 mmHg 67%
    02:00 +19°C° 0 mm 1 m/s 762 mmHg 69%
    03:00 +18°C° 0 mm 2 m/s 763 mmHg 70%
    04:00 +18°C° 0 mm 2 m/s 763 mmHg 71%
    05:00 +17°C° 0 mm 2 m/s 763 mmHg 71%
    06:00 +18°C° 0 mm 2 m/s 763 mmHg 69%
    07:00 +18°C° 0 mm 2 m/s 763 mmHg 67%
    08:00 +19°C° 0 mm 2 m/s 763 mmHg 65%
    09:00 +20°C° 0 mm 2 m/s 763 mmHg 60%
    10:00 +23°C° 0 mm 1 m/s 763 mmHg 55%
    11:00 +24°C° 0 mm 1 m/s 763 mmHg 51%
    12:00 +24°C° 0 mm 2 m/s 763 mmHg 50%
    13:00 +25°C° 0 mm 2 m/s 762 mmHg 50%
    14:00 +25°C° 0 mm 3 m/s 762 mmHg 50%
    15:00 +24°C° 0 mm 3 m/s 762 mmHg 54%
    16:00 +23°C° 0 mm 2 m/s 762 mmHg 59%
    17:00 +21°C° 0 mm 2 m/s 762 mmHg 64%
    18:00 +21°C° 0 mm 2 m/s 762 mmHg 66%
    19:00 +21°C° 0 mm 1 m/s 762 mmHg 69%
    20:00 +21°C° 0 mm 1 m/s 762 mmHg 71%
    21:00 +21°C° 0 mm 1 m/s 762 mmHg 73%
    22:00 +19°C° 0 mm 2 m/s 763 mmHg 75%
    23:00 +19°C° 0 mm 2 m/s 763 mmHg 76%

    Après-demain, 24 Novembre, Dimanche

    Heure Température Précipitation Vent Pression Humidité
    00:00 +18°C° 0 mm 2 m/s 762 mmHg 76%
    01:00 +18°C° 0 mm 2 m/s 762 mmHg 76%
    02:00 +18°C° 0 mm 2 m/s 762 mmHg 76%
    03:00 +17°C° 0 mm 2 m/s 762 mmHg 75%
    04:00 +17°C° 0 mm 2 m/s 762 mmHg 74%
    05:00 +17°C° 0 mm 2 m/s 762 mmHg 73%
    06:00 +17°C° 0 mm 2 m/s 762 mmHg 71%
    07:00 +18°C° 0 mm 2 m/s 762 mmHg 68%
    08:00 +18°C° 0 mm 2 m/s 763 mmHg 65%
    09:00 +20°C° 0 mm 2 m/s 763 mmHg 59%
    10:00 +22°C° 0 mm 1 m/s 763 mmHg 53%
    11:00 +24°C° 0 mm 1 m/s 762 mmHg 48%
    12:00 +24°C° 0 mm 1 m/s 762 mmHg 46%
    13:00 +25°C° 0 mm 1 m/s 761 mmHg 44%
    14:00 +25°C° 0 mm 2 m/s 761 mmHg 42%
    15:00 +24°C° 0 mm 2 m/s 761 mmHg 48%
    16:00 +22°C° 0 mm 3 m/s 761 mmHg 54%
    17:00 +21°C° 0 mm 4 m/s 761 mmHg 61%
    18:00 +21°C° 0 mm 5 m/s 761 mmHg 63%
    19:00 +20°C° 0 mm 6 m/s 761 mmHg 66%
    20:00 +20°C° 0 mm 7 m/s 761 mmHg 68%
    21:00 +20°C° 0 mm 7 m/s 760 mmHg 68%
    22:00 +18°C° 0 mm 7 m/s 760 mmHg 68%
    23:00 +18°C° 0 mm 7 m/s 760 mmHg 68%

    25 Novembre, Lundi

    Heure Température Précipitation Vent Pression Humidité
    00:00 +18°C° 0 mm 7 m/s 760 mmHg 70%
    01:00 +17°C° 0 mm 6 m/s 759 mmHg 71%
    02:00 +17°C° 0 mm 6 m/s 759 mmHg 73%
    03:00 +16°C° 0 mm 6 m/s 759 mmHg 73%
    04:00 +16°C° 0 mm 6 m/s 759 mmHg 73%
    05:00 +16°C° 0 mm 5 m/s 758 mmHg 73%
    06:00 +16°C° 0 mm 5 m/s 759 mmHg 70%
    07:00 +17°C° 0 mm 6 m/s 759 mmHg 66%
    08:00 +17°C° 0 mm 6 m/s 759 mmHg 63%
    09:00 +20°C° 0 mm 6 m/s 758 mmHg 52%
    10:00 +23°C° 0 mm 6 m/s 758 mmHg 42%
    11:00 +26°C° 0 mm 6 m/s 758 mmHg 31%
    12:00 +27°C° 0 mm 6 m/s 757 mmHg 29%
    13:00 +28°C° 0 mm 5 m/s 757 mmHg 27%
    14:00 +29°C° 0 mm 4 m/s 756 mmHg 25%
    15:00 +27°C° 0 mm 3 m/s 756 mmHg 28%
    16:00 +26°C° 0 mm 3 m/s 756 mmHg 31%
    17:00 +25°C° 0 mm 2 m/s 756 mmHg 34%
    18:00 +24°C° 0 mm 1 m/s 756 mmHg 37%
    19:00 +23°C° 0 mm 1 m/s 756 mmHg 39%
    20:00 +23°C° 0 mm 1 m/s 756 mmHg 42%
    21:00 +22°C° 0 mm 1 m/s 756 mmHg 43%
    22:00 +20°C° 0 mm 0 m/s 756 mmHg 44%
    23:00 +20°C° 0 mm 0 m/s 756 mmHg 45%

    26 Novembre, Mardi

    Heure Température Précipitation Vent Pression Humidité
    00:00 +21°C° 0 mm 1 m/s 756 mmHg 45%
    01:00 +21°C° 0 mm 1 m/s 756 mmHg 45%
    02:00 +20°C° 0 mm 2 m/s 756 mmHg 45%
    03:00 +20°C° 0 mm 2 m/s 756 mmHg 52%
    04:00 +20°C° 0 mm 2 m/s 756 mmHg 59%
    05:00 +20°C° 0 mm 2 m/s 756 mmHg 66%
    06:00 +20°C° 0 mm 2 m/s 757 mmHg 67%
    07:00 +21°C° 0 mm 3 m/s 757 mmHg 68%
    08:00 +21°C° 0 mm 3 m/s 757 mmHg 69%
    09:00 +22°C° 0 mm 4 m/s 757 mmHg 64%
    10:00 +23°C° 0 mm 6 m/s 758 mmHg 59%
    11:00 +24°C° 0 mm 7 m/s 758 mmHg 54%
    12:00 +24°C° 0 mm 8 m/s 757 mmHg 44%
    13:00 +24°C° 0 mm 8 m/s 757 mmHg 34%
    14:00 +24°C° 0 mm 9 m/s 757 mmHg 24%
    15:00 +23°C° 0 mm 8 m/s 757 mmHg 30%
    16:00 +21°C° 0 mm 7 m/s 757 mmHg 36%
    17:00 +20°C° 0 mm 6 m/s 757 mmHg 42%
    18:00 +20°C° 0 mm 6 m/s 758 mmHg 45%
    19:00 +20°C° 0 mm 6 m/s 758 mmHg 48%
    20:00 +19°C° 0 mm 6 m/s 758 mmHg 51%
    21:00 +19°C° 0 mm 6 m/s 758 mmHg 49%
    22:00 +18°C° 0 mm 7 m/s 759 mmHg 48%
    23:00 +17°C° 0 mm 7 m/s 759 mmHg 47%

    27 Novembre, Mercredi

    Heure Température Précipitation Vent Pression Humidité
    00:00 +17°C° 0 mm 7 m/s 758 mmHg 46%
    01:00 +17°C° 0 mm 7 m/s 758 mmHg 45%
    02:00 +17°C° 0 mm 7 m/s 758 mmHg 44%
    03:00 +16°C° 0 mm 7 m/s 758 mmHg 45%
    04:00 +16°C° 0 mm 7 m/s 758 mmHg 46%
    05:00 +16°C° 0 mm 7 m/s 758 mmHg 47%
    06:00 +16°C° 0 mm 7 m/s 758 mmHg 49%
    07:00 +16°C° 0 mm 7 m/s 759 mmHg 50%
    08:00 +16°C° 0 mm 7 m/s 759 mmHg 52%
    09:00 +18°C° 0 mm 7 m/s 759 mmHg 52%
    10:00 +20°C° 0 mm 8 m/s 759 mmHg 53%
    11:00 +21°C° 0 mm 8 m/s 759 mmHg 54%
    12:00 +21°C° 0.1 mm 8 m/s 759 mmHg 56%
    13:00 +22°C° 0.1 mm 8 m/s 759 mmHg 58%
    14:00 +22°C° 0.1 mm 7 m/s 758 mmHg 60%
    15:00 +22°C° 0.1 mm 7 m/s 758 mmHg 62%
    16:00 +22°C° 0.1 mm 6 m/s 759 mmHg 64%
    17:00 +21°C° 0.1 mm 6 m/s 759 mmHg 65%
    18:00 +21°C° 0 mm 6 m/s 759 mmHg 67%
    19:00 +21°C° 0 mm 5 m/s 760 mmHg 69%
    20:00 +20°C° 0 mm 5 m/s 760 mmHg 71%
    21:00 +20°C° 0.3 mm 5 m/s 760 mmHg 72%
    22:00 +20°C° 0.3 mm 5 m/s 760 mmHg 73%
    23:00 +20°C° 0.3 mm 5 m/s 761 mmHg 75%
    Voir plus